Location: Lamoine Observatory
(44.4551°N, 68.3470°W)
Time: 04:28:46
(UTC-04:00)

Daily predictions for brighter satellites

Satellite Brightness Start Highest point End
(mag) Time Altitude Azimuth Time Altitude Azimuth Time Altitude Azimuth
Cosmos 1844 Rocket 3.8 00:07:04 10° NNW 00:10:31 39° NNW 00:10:31 39° NNW
Cosmos 2360 Rocket 3.4 00:17:04 40° NNW 00:17:04 40° NNW 00:21:09 10° NNE
CZ-2C R/B 4.2 00:12:26 10° NNE 00:15:24 30° NE 00:15:24 30° NE
COSMOS 2455 4.4 00:32:02 27° ENE 00:32:02 27° ENE 00:34:53 10° NE
Cosmos 2219 Rocket 3.6 00:39:52 32° NE 00:39:52 32° NE 00:42:52 10° NNE
SL-16 R/B 4.2 00:50:53 19° ENE 00:50:53 19° ENE 00:53:07 10° NE
Cosmos 2333 Rocket 3.5 00:51:47 36° NE 00:51:47 36° NE 00:55:08 10° NNE
Cosmos 2237 Rocket 3.5 00:56:04 34° NE 00:56:04 34° NE 00:59:19 10° NNE
COSMOS 2428 3.9 01:07:05 36° NNW 01:07:05 36° NNW 01:11:14 10° NNE
CZ-4C R/B 4.2 01:16:10 20° ENE 01:16:10 20° ENE 01:18:35 10° ENE
Cosmos 2278 Rocket 3.8 01:21:22 10° NNW 01:23:57 27° NW 01:23:57 27° NW
Lacrosse 4 Rocket 4.2 01:41:00 14° NNW 01:41:00 14° NNW 01:42:52 10° N
Exosat Rocket 4.4 01:47:17 10° NNW 01:51:00 49° N 01:51:00 49° N
Cosmos 2266 Rocket 4.4 01:47:03 10° NNW 01:52:08 55° NW 01:52:08 55° NW
ATLAS 3B R/B 2.9 01:54:42 67° WNW 01:55:06 69° NW 02:02:29 10° NNE
CZ-2C R/B 4.3 01:53:16 10° N 01:56:55 25° NW 01:56:55 25° NW
CZ-2D R/B 4.4 01:59:58 10° NE 02:02:46 14° E 02:04:04 13° ESE
ATLAS CENTAUR R/B 3.8 02:01:56 10° NNW 02:05:30 22° NE 02:07:52 15° E
Cosmos 2369 Rocket 3.9 02:06:23 10° N 02:11:14 29° NE 02:16:03 10° ESE
COSMOS 2455 3.8 02:15:11 37° NW 02:15:14 37° NW 02:20:50 10° NNE
NPP 4.0 02:13:42 10° NNE 02:18:27 62° ENE 02:18:27 62° ENE
Cosmos 2219 Rocket 3.9 02:21:35 22° NW 02:21:48 22° NW 02:26:07 10° N
ADEOS 4.3 02:22:18 10° NNE 02:27:17 45° E 02:27:17 45° E
Cosmos 1867 3.8 02:28:12 67° N 02:28:12 67° N 02:33:01 10° NNE
SL-16 R/B 2.7 02:32:46 51° NW 02:32:46 51° NW 02:37:55 10° NNE
Cosmos 1269 Rocket 4.3 02:33:31 64° N 02:33:31 64° N 02:38:06 10° NNE
Cosmos 1607 3.9 02:32:46 71° NW 02:32:48 71° NW 02:38:59 10° NNE
Cosmos 2333 Rocket 3.8 02:33:47 24° NW 02:34:12 24° NW 02:38:48 10° N
ARIANE 5 R/B 3.7 02:29:49 10° NNE 02:34:36 35° E 02:35:20 33° ESE
Cosmos 1271 Rocket 4.3 02:38:38 36° NE 02:38:38 36° NE 02:41:22 10° NNE
Cosmos 2237 Rocket 3.7 02:37:53 25° NW 02:38:11 25° NW 02:42:50 10° N
Meteor 2-2 Rocket 4.3 02:40:36 75° WNW 02:40:36 75° WNW 02:46:26 10° N
Resurs 1-4 Rocket 3.4 02:36:31 10° NNE 02:41:12 32° E 02:42:32 28° ESE
USA 234 3.4 02:38:02 10° ENE 02:44:27 54° SE 02:45:16 51° SSE
Cosmos 1340 Rocket 4.3 02:40:46 10° N 02:43:08 33° N 02:43:08 33° N
USA 238 DEB 3.8 02:44:48 56° W 02:46:00 65° NW 02:53:03 10° NNE
USA 238 3.8 02:44:55 56° W 02:46:07 65° NW 02:53:09 10° NE
Cosmos 1151 Rocket 4.1 02:49:09 41° NNW 02:49:09 41° NNW 02:52:08 10° N
SeaSat 1 4.2 02:49:37 10° ESE 02:53:55 31° NE 02:58:13 10° N
ERBS 4.3 02:58:01 30° NNE 02:58:01 30° NNE 03:00:01 10° NE
IRAS Rocket 4.1 02:52:27 10° NNE 02:58:07 83° ESE 02:58:48 70° S
SL-24 R/B 4.3 02:59:04 71° N 02:59:04 71° N 03:03:20 10° NNW
Cosmos 158 Rocket 3.8 02:59:10 86° ENE 02:59:10 86° ENE 03:04:09 10° NNE
Okean O Rocket 4.3 02:58:58 10° NE 03:01:34 15° E 03:04:08 10° SE
ERS-2 3.2 02:57:57 10° NNE 03:00:43 44° NE 03:00:43 44° NE
CZ-4C R/B 2.4 03:01:20 54° WNW 03:01:56 57° NW 03:07:59 10° NNE
NOSS 3-2 (A) 3.4 03:01:04 63° SSW 03:02:07 81° SE 03:08:50 10° NE
Cosmos 2251 Rocket 3.6 03:08:16 60° SSE 03:09:02 69° ESE 03:14:16 10° NNE
CZ-3A R/B 4.1 03:04:31 39° SSW 03:09:33 75° SE 04:21:40 10° ENE
NOSS 3-3 (A) 4.3 03:03:06 10° NW 03:10:32 78° WSW 03:18:26 10° SSE
NOSS 3-3 (C) 4.3 03:03:12 10° NW 03:10:38 78° SW 03:18:33 10° SSE
Cosmos 1110 Rocket 3.8 03:05:29 10° NNW 03:10:43 87° WSW 03:11:36 63° SSE
ATLAS 5 CENTAUR R/B 3.4 03:09:56 23° SE 03:11:12 26° ESE 03:15:25 10° ENE
Cosmos 1603 3.8 03:14:06 56° W 03:14:49 61° WNW 03:20:31 10° NNE
UNKNOWN OBJECT B 3.9 03:12:22 10° NNE 03:15:49 35° E 03:16:11 34° ESE
EO 1 Del DPAF 4.1 03:15:18 41° ESE 03:16:11 49° ENE 03:19:58 10° N
CBERS-1 4.5 03:11:25 10° N 03:16:16 44° WNW 03:16:17 44° WNW
NOSS 3-2 (C) 3.4 03:16:42 53° SSW 03:18:20 84° SE 03:25:05 10° NE
In-Cosmos 22 Rocket 3.9 03:14:46 10° NNW 03:20:04 71° W 03:20:48 62° SSW
CENTAUR R/B 4.1 03:18:24 15° SSE 03:22:08 26° ESE 03:27:29 10° ENE
SL-16 R/B 2.4 03:20:43 35° S 03:23:32 78° WSW 03:29:46 10° NNW
S3M 4.2 03:23:09 45° WSW 03:24:10 49° WNW 03:30:17 10° N
Iridium 2 4.2 03:21:10 10° N 03:24:56 57° E 03:25:27 51° ESE
IRS-1C 4.5 03:20:52 10° N 03:25:57 46° WNW 03:26:32 44° W
Meteor 2-3 Rocket 3.7 03:20:58 10° NNW 03:26:44 75° W 03:28:49 41° S
Cosmos 839 Rocket 4.3 03:21:11 10° NW 03:29:28 68° WSW 03:36:04 10° SSE
Meteor 2-10 4.3 03:30:10 34° S 03:32:40 73° E 03:38:05 10° NNE
Cosmos 1892 2.7 03:29:29 10° N 03:33:21 77° E 03:33:49 65° SE
Cosmos 1869 Rocket 4.3 03:30:04 10° NNW 03:33:25 38° WNW 03:33:25 38° WNW
Cosmos 1356 Rocket 4.2 03:32:35 10° NNW 03:35:23 36° NW 03:35:23 36° NW
Cosmos 2242 Rocket 3.6 03:36:31 51° S 03:37:40 88° E 03:42:16 10° N
CZ-2D R/B 2.0 03:38:10 10° N 03:43:28 76° WNW 03:45:24 40° SSW
Abrixas rocket 3.3 03:44:19 36° NNW 03:44:55 39° N 03:48:06 10° ENE
ATLAS CENTAUR R/B 1.9 03:40:39 10° NW 03:43:55 42° WNW 03:43:55 42° WNW
Cosmos 1943 3.1 03:43:43 41° SW 03:45:47 77° WNW 03:51:28 10° NNE
ATLAS 3B R/B 4.4 03:41:56 12° WNW 03:47:12 24° NNW 03:52:58 10° NNE
Cosmos 1862 Rocket 4.1 03:45:54 23° SSE 03:48:26 55° E 03:52:45 10° NNE
Cosmos 1709 Rocket 3.9 03:42:05 10° NNW 03:48:26 73° W 03:53:17 18° S
MOZ.5/SAFIR/RUBIN 5/SL-8 4.3 03:44:45 10° SSE 03:49:17 58° ENE 03:53:51 10° N
Cosmos 1726 3.5 03:50:12 26° NW 03:50:12 26° NW 03:52:47 10° NNW
Cosmos 494 Rocket 4.0 03:49:58 40° SW 03:51:49 69° WNW 03:57:05 10° NNE
MTI 3.7 03:51:41 59° SSE 03:52:15 90° ESE 03:55:38 10° NNW
UNK 4.1 03:52:33 41° WSW 03:52:49 41° W 03:57:12 10° NNW
Cosmos 1300 4.3 03:54:17 21° WNW 03:54:17 21° WNW 03:56:41 10° NNW
Cosmos 2369 Rocket 2.3 03:50:06 10° NW 03:55:29 48° WSW 03:59:34 17° S
CZ-4B R/B 4.0 03:53:59 10° NNE 03:59:07 47° E 04:04:10 10° S
Cosmos 1302 Rocket 4.0 03:56:12 10° NNW 04:01:23 61° WSW 04:06:31 10° S
IRS-1D 4.0 03:57:07 10° N 04:02:00 43° WNW 04:03:55 31° WSW
PSLV R/B 3.6 04:02:40 46° S 04:02:47 46° S 04:06:06 10° ESE
PSLV R/B 4.1 03:59:39 10° NNE 04:03:23 62° E 04:05:45 21° S
Cosmos 1455 2.2 04:05:19 39° SSW 04:06:37 67° W 04:10:32 10° N
Cosmos 2074 Rocket 4.2 04:03:57 10° N 04:10:11 76° E 04:16:25 10° SSE
Cosmos 2184 Rocket 4.2 04:06:37 10° N 04:13:02 77° E 04:19:24 10° SSE
Cosmos 389 Rocket 2.5 04:11:38 24° S 04:13:36 75° E 04:17:07 10° NNE
Cosmos 1733 Rocket 3.1 04:09:20 10° NNW 04:13:38 58° W 04:16:56 17° S
ARIANE 5 R/B 3.4 04:09:01 10° N 04:13:39 33° WNW 04:15:40 25° WSW
BREEZE-M DEB (TANK) 3.7 04:12:19 17° WNW 04:15:17 63° SSW 04:23:51 10° SE
SL-16 R/B 4.4 04:16:01 10° WNW 04:17:52 11° NW 04:19:44 10° NNW
Pageos (A) 2.9 04:16:20 10° N 04:18:31 77° E 04:19:06 41° SSE
Resurs 1-4 Rocket 2.8 04:16:17 10° N 04:21:03 36° WNW 04:23:37 23° WSW
Cosmos 1943 Rocket 2.1 04:16:48 10° NNW 04:22:28 69° WSW 04:28:03 10° SSE
BREEZE-M DEB (TANK) 4.3 04:22:12 10° WNW 04:26:07 43° N 04:33:29 10° E
PAYLOAD B 4.3 04:21:35 10° NNE 04:27:10 86° ESE 04:32:41 10° SSW
USA 234 3.7 04:21:06 10° NE 04:27:27 55° NNW 04:32:36 16° W
Cosmos 1184 Rocket 3.2 04:24:28 10° NNW 04:27:44 42° W 04:29:40 21° SSW
SeaSat 1 2.8 04:26:39 10° S 04:31:18 42° WSW 04:36:00 10° NW
ERS-2 4.4 04:33:41 10° NW 04:34:56 11° WNW 04:35:33 11° WNW
ADEOS II 3.1 04:32:24 10° NNE 04:37:29 46° E 04:42:31 10° S
Okean O Rocket 1.8 04:33:54 10° N 04:38:18 57° WNW 04:42:13 13° SSW
Cosmos 1908 Rocket 3.5 04:37:00 10° NNW 04:41:22 66° W 04:45:40 10° S
Okean-O 3.5 04:37:10 10° NNE 04:41:31 51° E 04:45:49 10° S
Cosmos 2221 Rocket 3.8 04:37:14 10° S 04:41:39 73° E 04:46:05 10° NNE
Cosmos 1408 2.5 04:38:33 10° NNW 04:42:16 70° W 04:46:00 10° S
Cosmos 2285 Rocket 4.0 04:35:58 10° NNW 04:42:24 79° WSW 04:48:47 10° SSE
Cosmos 1825 2.1 04:39:31 10° NNW 04:43:17 67° W 04:47:02 10° S
Cosmos 1862 3.3 04:40:41 10° NNW 04:44:37 60° W 04:48:31 10° S
Thor Agena Rocket 3.5 04:40:28 10° S 04:45:35 69° WSW 04:50:48 10° NNW
BREEZE-M DEB (TANK) 3.9 04:44:14 10° W 04:49:45 30° NNW 04:52:27 10° NE
UNKNOWN OBJECT B 4.4 04:47:38 10° NNW 04:50:07 17° WNW 04:51:42 14° W
CZ-4C R/B 4.3 04:47:54 10° WNW 04:51:57 19° NNW 04:56:21 10° NNE
CZ-4B R/B 2.9 04:49:03 10° N 04:52:36 51° WNW 04:56:14 10° SSW
Sich 1 Rocket 4.1 04:49:52 10° NNW 04:53:58 38° W 04:58:01 10° SSW
ATLAS 5 CENTAUR R/B 2.4 04:51:30 14° WSW 04:55:33 49° NW 05:00:44 10° NNE
BREEZE-M DEB (TANK) 2.4 04:54:09 13° W 04:55:54 36° SSW 04:58:31 10° SE
Cosmos 1656 Rocket 3.5 04:50:32 10° NNW 04:55:59 76° WSW 05:01:22 10° SSE
USA 129 0.4 04:56:31 47° WSW 04:56:32 47° W 04:57:49 10° NNW
USA 32 4.0 04:52:05 10° SSW 04:57:19 71° W 05:02:34 10° N
Cosmos 1992 Rocket 4.0 04:52:57 10° NNW 04:58:07 61° WSW 05:03:15 10° S
Cosmos 1703 Rocket 3.6 04:56:10 10° SSW 05:00:37 64° W 05:05:06 10° N
Cosmos 1933 3.7 04:57:28 10° SSW 05:01:25 45° WNW 05:05:23 10° N
SL-27 R/B 3.1 05:00:14 10° SW 05:03:40 42° WNW 05:07:09 10° N
ADEOS Rocket 3.7 04:59:56 10° NNE 05:07:40 87° WNW 05:15:27 10° SSW
SL-16 R/B 4.2 05:06:00 10° WSW 05:08:09 12° W 05:10:20 10° WNW
Aureole 3 Rocket 3.9 05:02:53 10° SSW 05:10:03 69° W 05:15:06 10° N
CENTAUR R/B 2.7 05:05:58 10° SW 05:12:08 65° NW 05:19:08 10° NE
Atlas Centaur 2 4.2 05:13:22 10° S 05:15:11 12° SSE 05:17:08 10° SE
PSLV R/B 3.8 05:16:54 10° N 05:21:10 54° WNW 05:25:27 10° SSW
